Flag for Germany Weather past 2 weeks in Hannover, Lower Saxony, Germany

Now
46 °F

Clear.


Feels Like: 44 °F
Forecast: 38 / 63 °F
Wind: 6 mph from North

Location: Hannover

Current Time: Apr 19, 2015 at 11:21:30 PM

Latest Report: Apr 19, 2015 at 10:50 PM


Visibility: 10 mi

Pressure: 30.24 "Hg

Humidity: 62%

Dew point: 34 °F

Location of HannoverLocation

Historic Weather in Hannover — Graph

°F

Hannover temperature yesterday

Maximum temperature yesterday: 55 °F (at 3:50 PM)
Minimum temperature yesterday: 34 °F (at 4:50 AM)
Average temperature yesterday: 46 °F

Past Weeks' High & Low Weather Summary

 TemperatureHumidityPressure
High72 °F (Apr 15, 3:20 PM)100% (Apr 5, 1:50 AM)30.57 "Hg (Apr 5, 1:50 AM)
Low27 °F (Apr 5, 5:20 AM)32% (Apr 6, 2:50 PM)29.89 "Hg (Apr 15, 4:50 PM)
Average48 °F68%30.24 "Hg
* Reported Apr 4 10:20 PM — Apr 19 10:20 PM, Hannover, Weather by CustomWeather, © 2015

Note: Actual official high and low records may vary slightly from our data, if they occured in-between our weather recording intervals... More about our weather records

Advertising

Hannover weather history for previous 24 hours

 ConditionsComfort  
Time TempWeatherWind HumidityBarometerVisibility
10:20 PM
Sun, Apr 19
48 °FClear.8 mph58%30.24 "Hg10 mi
9:50 PM46 °FClear.5 mph62%30.24 "Hg10 mi
9:20 PM48 °FSunny.5 mph62%30.24 "Hg10 mi
8:50 PM50 °FSunny.3 mph54%30.21 "Hg10 mi
8:20 PM55 °FSunny.3 mph47%30.21 "Hg10 mi
7:50 PM55 °FSunny.5 mph47%30.21 "Hg10 mi
7:20 PM57 °FPassing clouds.5 mph41%30.21 "HgN/A
6:50 PM59 °FSunny.1 mph42%30.18 "Hg10 mi
6:20 PM59 °FPassing clouds.6 mph42%30.18 "HgN/A
5:50 PM59 °FSunny.5 mph42%30.18 "Hg10 mi
5:20 PM59 °FPassing clouds.5 mph39%30.21 "HgN/A
4:50 PM57 °FPassing clouds.5 mph41%30.21 "HgN/A
4:20 PM59 °FPassing clouds.5 mph39%30.21 "HgN/A
3:50 PM57 °FSunny.6 mph39%30.21 "Hg10 mi
3:20 PM57 °FSunny.6 mph41%30.21 "Hg10 mi
2:50 PM57 °FSunny.5 mph41%30.21 "Hg10 mi
2:20 PM57 °FSunny.3 mph48%30.21 "Hg10 mi
1:50 PM55 °FScattered clouds.5 mph44%30.21 "HgN/A
1:20 PM54 °FScattered clouds.3 mph51%30.21 "HgN/A
12:50 PM54 °FScattered clouds.3 mph54%30.21 "HgN/A
12:20 PM52 °FScattered clouds.2 mph62%30.21 "HgN/A
11:50 AM50 °FScattered clouds.3 mph67%30.21 "HgN/A
11:20 AM50 °FSunny.2 mph71%30.21 "Hg10 mi
10:50 AM46 °FPassing clouds.3 mph71%30.21 "HgN/A
10:20 AM46 °FPassing clouds.3 mph76%30.21 "HgN/A
9:50 AM45 °FScattered clouds.3 mph76%30.21 "HgN/A
9:20 AM43 °FPartly sunny.3 mph81%30.21 "HgN/A
8:50 AM43 °FPartly sunny.2 mph81%30.21 "HgN/A
8:20 AM41 °FPartly sunny.2 mph87%30.21 "HgN/A
7:50 AM41 °FPartly sunny.2 mph87%30.21 "HgN/A
7:20 AM39 °FPartly sunny.3 mph93%30.21 "HgN/A
6:50 AM39 °FPassing clouds.3 mph87%30.18 "HgN/A
6:20 AM39 °FPassing clouds.3 mph93%30.18 "HgN/A
5:20 AM37 °FPartly cloudy.3 mph93%30.18 "HgN/A
4:50 AM37 °FPassing clouds.3 mph93%30.21 "HgN/A
4:20 AM37 °FPartly cloudy.5 mph93%30.21 "HgN/A
3:50 AM36 °FPassing clouds.5 mph100%30.21 "HgN/A
3:20 AM36 °FPartly cloudy.5 mph93%30.21 "HgN/A
2:50 AM36 °FPassing clouds.3 mph93%30.21 "HgN/A
2:20 AM37 °FClear.6 mph93%30.24 "Hg10 mi
1:20 AM39 °FClear.6 mph87%30.24 "Hg10 mi
12:50 AM39 °FClear.7 mph87%30.24 "Hg10 mi
12:20 AM39 °FClear.6 mph81%30.24 "Hg10 mi
11:50 PM
Sat, Apr 18
39 °FClear.6 mph81%30.24 "Hg10 mi
11:20 PM41 °FClear.5 mph76%30.24 "Hg10 mi
Weather by CustomWeather, © 2015

See weather overviewHow to use our weather pages